Simultaneous Nadir Overpasses (SNOs) Predictions

Prediction of SNOs between GOES-14 and NOAA-20 Satellite Orbit:

Table of predicted SNOs for the next 14.0 days since TLE Epoch: 3/13/2021
Index Date Time (GOES-14) GOES-14 Lat,Lon NOAA-20 Lat,Lon Distance(km) Time Diff (sec)
1 03/13/2021 08:36:14 0.08,-104.41 0.91,-107.97 406.89 80
2 03/14/2021 08:20:10 0.08,-104.42 -0.12,-103.45 110.86 80
3 03/16/2021 20:20:41 -0.08,-104.31 -0.06,-104.21 11.98 80
4 03/19/2021 08:23:43 0.09,-104.44 0.22,-104.94 57.95 80
5 03/20/2021 08:07:39 0.08,-104.45 -0.82,-100.41 459.71 80
6 03/21/2021 20:29:34 -0.09,-104.35 -0.40,-105.70 154.67 80
7 03/22/2021 20:08:10 -0.09,-104.34 0.64,-101.18 361.32 80
8 03/24/2021 08:29:57 0.10,-104.44 0.55,-106.44 227.86 80
9 03/25/2021 08:13:53 0.10,-104.45 -0.49,-101.91 289.71 80
10 03/26/2021 20:35:48 -0.11,-104.37 -0.73,-107.20 322.05 80
